Minot, ND

12:09 PM CDT on June 28, 2017 (GMT -0500)
Minot International

Weather History for KMOT - January, 2013

Change the Weather History Date:

Thursday, January 31, 2013

  Actual Average Record
Temperature  
Mean Temperature -15 °F 14 °F  
Max Temperature -11 °F 22 °F 53 °F (1931)
Min Temperature -20 °F 5 °F -33 °F (1918)
Degree Days  
Heating Degree Days 80 51  
Month to date heating degree days 1656 1634  
Since 1 July heating degree days 5401 5232  
Moisture  
Dew Point -24 °F    
Average Humidity 66    
Maximum Humidity 70    
Minimum Humidity 62    
Precipitation  
Precipitation 0.00 in 0.01 in 0.23 in (1965)
Month to date precipitation 0.11 0.51  
Year to date precipitation 0.11 0.51  
Sea Level Pressure  
Sea Level Pressure 30.38 in    
Wind  
Wind Speed 16 mph (West)    
Max Wind Speed 24 mph    
Max Gust Speed 29 mph    
Visibility 10 miles    
Events      
T = Trace of Precipitation, MM = Missing Value Source: NWS Daily Summary

Daily Weather History Graph

Daily Weather History Graph

Search for Another Location

Airport or City:

Trip Planner

Search our weather history database for the weather conditions in past years. The results will help you decide how hot, cold, wet, or windy it might be!

Date:

Astronomy

Jan. 31, 2013 Rise Set
Actual Time 8:14 AM CST 5:43 PM CST
Civil Twilight 7:40 AM CST 6:17 PM CST
Nautical Twilight 7:03 AM CST 6:54 PM CST
Astronomical Twilight 6:26 AM CST 7:31 PM CST
Moon 11:17 PM CST (1/31) 9:48 AM CST (1/31)
Length of Visible Light 10h 36m
Length of Day
9h 29m
Waning Gibbous, 79% of the Moon is Illuminated
Jan 31
Waning Gibbous
Feb 3
Last Quarter
Feb 10
New
Feb 17
First Quarter
Feb 25
Full

Hourly Weather History & Observations

Time (CST) Temp. Windchill Dew Point Humidity Pressure Visibility Wind Dir Wind Speed Gust Speed Precip Events Conditions
12:54 AM -18.0 °F -46.0 °F -25.1 °F 70% 30.25 in 10.0 mi WNW 20.7 mph - N/A   Clear
1:54 AM -18.9 °F -46.6 °F -26.0 °F 70% 30.27 in 10.0 mi WNW 19.6 mph - N/A   Scattered Clouds
2:54 AM -18.9 °F -47.2 °F -26.0 °F 70% 30.30 in 10.0 mi WNW 20.7 mph - N/A   Clear
3:54 AM -18.9 °F -48.4 °F -27.0 °F 66% 30.32 in 10.0 mi West 23.0 mph - N/A   Partly Cloudy
4:54 AM -20.0 °F -49.3 °F -27.0 °F 70% 30.35 in 10.0 mi WNW 21.9 mph - N/A   Clear
5:54 AM -20.2 °F -46.8 °F -27.4 °F 69% 30.18 in 10.0 mi WNW 17.3 mph - N/A   Clear
6:54 AM -20.0 °F -46.6 °F -27.0 °F 70% 30.40 in 10.0 mi West 17.3 mph - N/A   Clear
7:54 AM -20.0 °F -48.0 °F -27.9 °F 67% 30.43 in 10.0 mi West 19.6 mph - N/A   Clear
8:54 AM -20.0 °F -46.6 °F -27.0 °F 70% 30.45 in 10.0 mi West 17.3 mph - N/A   Clear
9:54 AM -18.9 °F -45.9 °F -26.0 °F 70% 30.47 in 10.0 mi West 18.4 mph - N/A   Clear
10:54 AM -17.0 °F -45.8 °F -25.1 °F 67% 30.48 in 10.0 mi West 23.0 mph - N/A   Clear
11:54 AM -15.0 °F -43.2 °F -24.0 °F 64% 30.48 in 10.0 mi West 23.0 mph - N/A   Clear
12:54 PM -14.1 °F -41.4 °F -22.0 °F 68% 30.48 in 10.0 mi WNW 21.9 mph - N/A   Clear
1:54 PM -13.0 °F -36.0 °F -22.0 °F 64% 30.45 in 10.0 mi WNW 15.0 mph - N/A   Clear
2:54 PM -13.0 °F -37.5 °F -22.0 °F 64% 30.44 in 10.0 mi West 17.3 mph 21.9 mph N/A   Clear
3:54 PM -11.9 °F -33.8 °F -20.9 °F 64% 30.44 in 10.0 mi West 13.8 mph - N/A   Clear
4:54 PM -11.9 °F -33.8 °F -20.9 °F 64% 30.42 in 10.0 mi West 13.8 mph - N/A   Clear
5:54 PM -13.0 °F -33.4 °F -22.0 °F 64% 30.22 in 10.0 mi West 11.5 mph - N/A   Clear
6:54 PM -14.1 °F -32.6 °F -22.0 °F 68% 30.41 in 10.0 mi WSW 9.2 mph - N/A   Clear
7:54 PM -14.1 °F -32.6 °F -22.0 °F 68% 30.40 in 10.0 mi West 9.2 mph - N/A   Clear
8:54 PM -15.0 °F -34.8 °F -22.0 °F 71% 30.39 in 10.0 mi SW 10.4 mph - N/A   Clear
9:54 PM -17.0 °F -27.2 °F -23.1 °F 74% 30.37 in 10.0 mi SSW 3.5 mph - N/A   Clear
10:54 PM -17.0 °F -33.4 °F -23.1 °F 74% 30.35 in 10.0 mi SSW 6.9 mph - N/A   Clear